Regional Weather Roundup
Issued by NWS Albany, NY

Home | Current Version | Previous Version | Graphics & Text | Print | Product List | Glossary Off
Versions: 1 2 3 4 5 6 7 8 9 10 11 12 13 14 15 16 17 18 19 20 21 22 23 24 25 26 27 28 29 30 31 32 33 34 35 36 37 38 39 40 41 42 43 44 45 46 47 48 49 50

000
ASUS41 KALY 100310
RWRALY

NEW YORK STATE HOURLY WEATHER ROUNDUP
NATIONAL WEATHER SERVICE ALBANY NY
1100 PM EDT WED JUL 09 2014

NOTE: "FAIR" INDICATES FEW OR NO CLOUDS BELOW 12,000 FEET WITH NO
SIGNIFICANT WEATHER AND/OR NO OBSTRUCTIONS TO VISIBILITY.

NYZ032-033-038>043-046>054-057>066-NYZ062>081-100400-
EAST


CITY           SKY/WX    TMP DP  RH WIND       PRES   REMARKS
ALBANY         PTCLDY    67  63  87 W8        29.96R
GLENS FALLS    CLEAR     67  63  87 MISG      29.94R
POUGHKEEPSIE   MOCLDY    71  64  78 CALM      29.94S
NEWBURGH       CLOUDY    70  64  83 W8        29.97R
MONTGOMERY     MOCLDY    66  64  93 CALM      29.96R
WHITE PLAINS   MOCLDY    72  64  76 NW3       29.95S
NEW YORK CITY  MOCLDY    77  63  61 N8        29.93R
CENTRAL PARK   MOCLDY    73  65  75 N6        29.97R
$$

NYZ005>009-017-018-044>046-055-056-100400-
CENTRAL


CITY           SKY/WX    TMP DP  RH WIND       PRES   REMARKS
FULTON         MOCLDY    60  54  80 CALM      29.99R
SYRACUSE       CLOUDY    64  57  78 S3        29.99R
ROME           CLEAR     58  56  93 N3        30.00R
ELMIRA         CLEAR     61  60  97 CALM      30.00R
BINGHAMTON     CLEAR     63  60  90 N6        30.01R
$$

NYZ026>034-041>043-100400-
NORTH


CITY           SKY/WX    TMP DP  RH WIND       PRES   REMARKS
WATERTOWN      CLEAR     60  53  77 S6        29.97R
FORT DRUM      NOT AVBL
MASSENA        CLEAR     62  57  83 SW10      29.93R
SARANAC LAKE   CLEAR     57  51  80 VRB6      29.95R
PLATTSBURGH    PTCLDY    66  54  65 SW3       29.91R
$$

NYZ001>004-010>016-019>021-100400-
WEST


CITY           SKY/WX    TMP DP  RH WIND       PRES   REMARKS
NIAGARA FALLS  CLEAR     62  52  69 NW5       30.01R
BUFFALO        CLEAR     65  51  60 CALM      30.01R
DUNKIRK        CLEAR     61  56  83 SW6       30.02R
JAMESTOWN      PTCLDY    57  52  82 NW3       30.06R
WELLSVILLE     MOCLDY    59  53  80 W6        30.06R
ROCHESTER      CLOUDY    66  55  67 W3        30.00R
PENN YAN       CLEAR     59  57  93 CALM      30.02R
$$

             KEY
       WCI = WIND CHILL INDEX
       VSB = VISIBILITY
       HX  = HEAT INDEX
$$


USA.gov is the U.S. government's official web portal to all federal, state and local government web resources and services.